Location: Recife
(8.0585°S, 34.8848°W)
Time: 11:37:42
(UTC-03:00)

Vanguard 2 Rocket - Pass Details

Date: 23 April 2026
Orbit: 553 x 3286 km, 32.9° (Epoch: 7 May)

Event Time Altitude Azimuth Distance (km) Brightness Sun altitude
Rises 09:40:26 0° 227° (SW) 5,290 10.5 58.1°
Reaches altitude 10° 09:43:44 10° 219° (SW) 4,628 10.3 58.8°
Maximum altitude 09:57:10 45° 150° (SSE) 3,596 10.4 61.2°
Drops below altitude 10° 10:15:34 10° 83° (E) 6,232 11.6 64.1°
Sets 10:20:51 0° 77° (ENE) 7,207 11.7 64.9°
